Regional Weather Roundup
Issued by NWS

Home | Current Version | Previous Version | Text Only | Print | Product List | Glossary Off
Versions: 1 2 3 4 5 6 7 8 9 10 11 12 13 14 15 16 17 18 19 20 21 22 23 24 25 26 27 28 29 30 31 32 33 34 35 36 37 38 39 40 41 42 43 44 45 46 47 48 49 50

000
ASUS43 KDTX 190910
RWRMI
MICHIGAN HOURLY REGIONAL WEATHER ROUNDUP
NATIONAL WEATHER SERVICE DETROIT/PONTIAC MI
500 AM EDT SAT AUG 19 2017

NOTE: "FAIR" INDICATES FEW OR NO CLOUDS BELOW 12,000 FEET WITH NO
SIGNIFICANT WEATHER AND/OR OBSTRUCTION TO VISIBILITY.

MIZ047>049-052>055-059>063-066>070-074>076-081>083-191000-
SOUTHEAST LOWER MICHIGAN

CITY           SKY/WX    TMP DP  RH WIND       PRES   REMARKS
ADRIAN         PTCLDY    62  60  93 NW3       29.89S
ALMA           CLOUDY    60  58  95 CALM      29.87S
ANN ARBOR      MOCLDY    57  57 100 CALM      29.87S FOG
BAD AXE        CLOUDY    62  60  93 SW5       29.84F
CARO           MOCLDY    60  58  93 SW3       29.84F
DETROIT CITY   CLOUDY    66  60  81 W6        29.86F
DETROIT        MOCLDY    64  61  90 SW6       29.87F
FLINT          CLOUDY    61  59  93 SW7       29.86F
GROSSE ILE     PTCLDY    65  61  85 CALM      29.86S
HILLSDALE      LGT RAIN  63  59  88 S5        29.89S
HOWELL         CLOUDY    62  60  92 W3        29.88S

CITY           SKY/WX    TMP DP  RH WIND       PRES   REMARKS
JACKSON        CLOUDY    61  59  93 CALM      29.89R
LAMBERTVILLE   CLEAR     62  61  96 CALM      29.87F
LANSING        CLOUDY    63  59  87 W5        29.88S
LAPEER         CLOUDY    62  60  93 W6        29.86F
MASON          MOCLDY    64  60  87 CALM      29.89S
MONROE         CLEAR     60  59  97 CALM      29.87S
MT. CLEMENS    CLOUDY    64  61  90 W5        29.84F
PONTIAC        MOCLDY    62  61  96 SW6       29.86F
PORT HOPE        N/A     63  59  87 CALM      29.81S
PORT HURON     CLEAR     59  57  94 CALM      29.86S FOG
TRI CITIES     MOCLDY    62  62 100 W8        29.85S
MIDLAND        FAIR      61  60  97 W3        29.85S
TROY           CLOUDY    64  60  87 SW3       29.88S
SAGINAW HB     PTCLDY    61  59  94 SW5       29.85R
$$
MIZ043>046-050>051-056>058-064>065-071>073-077>080-191000-
SOUTHWEST LOWER MICHIGAN

CITY           SKY/WX    TMP DP  RH WIND       PRES   REMARKS
BATTLE CREEK   CLOUDY    64  62  93 CALM      29.89S
BENTON HARBOR  PTCLDY    69  62  78 NW6       29.88S
BIG RAPIDS     CLOUDY    58  56  92 CALM      29.87S
COLDWATER      CLOUDY    65  64  96 S3        29.89S
FREMONT        FOG       58  58 100 CALM      29.87S VSB 1/2
HOLLAND        FOG       61  59  93 CALM      29.88S VSB 1/2
GRAND RAPIDS   PTCLDY    63  61  93 S3        29.87S
IONIA          MOCLDY    62  60  94 CALM      29.87S
KALAMAZOO      CLOUDY    64  60  87 S3        29.88S
LUDINGTON      MOCLDY    56  56  98 CALM      29.87R FOG
MARSHALL       CLOUDY    60  60  98 CALM      29.88S
MOUNT PLEASANT CLOUDY    63  60  91 CALM      29.86S
MUSKEGON       MOCLDY    63  61  93 CALM      29.87S
SOUTH HAVEN    MOCLDY    68  66  91 NW6       29.88R
$$
MIZ016>042-191000-
NORTHERN LOWER MICHIGAN

CITY           SKY/WX    TMP DP  RH WIND       PRES   REMARKS
ALPENA         CLOUDY    62  59  90 W7        29.80S
BEAVER ISLAND  CLOUDY    62  58  88 NW6       29.83S
BELLAIRE       CLOUDY    61  59  94 CALM      29.82S
CADILLAC       CLOUDY    58  55  90 SW6       29.86R
CHARLEVOIX     MOCLDY    64  59  85 NW9       29.85S
FRANKFORT      MOCLDY    60  60 100 CALM      29.85S
GAYLORD        CLOUDY    59  56  89 W5        29.83S
GRAYLING       CLOUDY    59  57  94 SW3       29.85R
HARBOR SPRINGS CLOUDY    62  58  87 W6        29.82S
HOUGHTON LAKE  CLOUDY    60  57  89 W7        29.86R
MANISTEE       MOCLDY    56  56 100 CALM      29.85S
OSCODA         CLOUDY    61  58  91 W9        29.82S
PELLSTON       CLOUDY    62  58  86 NW12      29.82R
ROGERS CITY    CLOUDY    61  58  89 NW7       29.80S
TRAVERSE CITY  CLOUDY    62  59  90 CALM      29.83R
$$
MIZ007>008-015-191000-
EASTERN UPPER MICHIGAN

CITY           SKY/WX    TMP DP  RH WIND       PRES   REMARKS
KINROSS        CLOUDY    59  57  94 NW9       29.80S
MACKINAC ISLAN CLOUDY    60  60 100 NW9       29.81R
NEWBERRY       CLOUDY    56  55  97 W7        29.82S
S. S. MARIE    CLOUDY    61  59  93 W6        29.78S
MUNISING         N/A     58  58 100 SW5       29.81F
$$
MIZ004>006-011>014-085-191000-
CENTRAL UPPER MICHIGAN

CITY           SKY/WX    TMP DP  RH WIND       PRES   REMARKS
MANISTIQUE     CLOUDY    56  50  81 NW6       29.82F
ESCANABA       CLOUDY    56  55  97 W6        29.84S
MENOMINEE      CLOUDY    58  57  97 CALM      29.86S
SAWYER-GWINN   CLOUDY    55  53  94 CALM      29.84F
$$
MIZ001>003-009>011-084-191000-
WESTERN UPPER MICHIGAN

CITY           SKY/WX    TMP DP  RH WIND       PRES   REMARKS
IRON MOUNTAIN  MOCLDY    57  53  86 CALM      29.85S
HOUGHTON         N/A    N/A N/A N/A MISG      29.80S
COPPER HARBOR    N/A     61  57  87 SW5       29.78S
IRONWOOD       PTCLDY    61  57  87 W10       29.87R
$$

ABBREVIATIONS USED IN REMARKS
   TC - TEMPERATURE IN CELSIUS
  WCI - WIND CHILL INDEX
   HX - HEAT INDEX
  VSB - VISIBILITY




USA.gov is the U.S. government's official web portal to all federal, state and local government web resources and services.